HURRICANE WA US current weather conditions

sailwx.info

Wind from 191 at 7 knots gusting 14

Air temperature 7.2° C
Dewpoint 7.2° C

Last reported at 2019-Sep-15 06:28 UTC.
Time now 2019-Sep-15 07:52 UTC

Location: N 47°58' W 123°30'.
View on Google Maps.

See reports from other nearby stations

  
Tides and Currents Weather Stations Pressure Air Temp Water Temp Dewpoint Dewpoint Depression Visibility Wind Speed Wind Dir Waves Ship Positions
date/time (UTC)wind fromknots sea level pressurealtimeterstation pressurevisibilityair tempwater tempwave heightnotes
2019-Sep-15 06:28 191 7 gusting 14 7.2
2019-Sep-15 05:28 184 7 gusting 16 7.2
2019-Sep-15 04:28 191 8 gusting 15 7.2
2019-Sep-15 03:28 184 8 gusting 17 7.2
2019-Sep-15 02:28 188 10 gusting 19 7.2
2019-Sep-15 01:28 181 12 gusting 20 7.2
2019-Sep-15 00:28 191 12 gusting 20 7.2
2019-Sep-14 23:28 185 11 gusting 20 7.2
2019-Sep-14 22:28 184 10 gusting 22 7.2
2019-Sep-14 21:28 185 12 gusting 20 6.7
2019-Sep-14 20:28 183 11 gusting 19 6.7
2019-Sep-14 19:28 187 12 gusting 20 6.7
2019-Sep-14 18:28 177 11 gusting 19 6.1
2019-Sep-14 17:28 186 10 gusting 19 6.1
2019-Sep-14 16:28 187 10 gusting 21 6.1
2019-Sep-14 15:28 183 11 gusting 19 5.6
2019-Sep-14 14:28 182 11 gusting 20 5.0
2019-Sep-14 13:28 174 11 gusting 17 5.0
2019-Sep-14 12:28 190 6 gusting 19 5.6
2019-Sep-14 11:28 179 9 gusting 15 6.1
2019-Sep-14 10:28 205 5 gusting 11 6.7
2019-Sep-14 09:28 192 6 gusting 14 6.7
2019-Sep-14 08:28 183 8 gusting 14 6.7
2019-Sep-14 07:28 175 8 gusting 17 6.7
2019-Sep-14 06:28 182 10 gusting 17 6.7
2019-Sep-14 05:28 187 6 gusting 12 7.2
2019-Sep-14 04:28 183 3 gusting 11 7.2
2019-Sep-14 03:28 196 6 gusting 12 7.2
2019-Sep-14 02:28 207 6 gusting 11 7.8
2019-Sep-14 01:28 190 6 gusting 11 7.8
2019-Sep-14 00:28 192 6 gusting 13 7.8
2019-Sep-13 23:28 205 6 gusting 12 7.8
2019-Sep-13 22:28 185 5 gusting 9 8.3
2019-Sep-13 21:28 199 5 gusting 11 7.8
2019-Sep-13 20:28 194 6 gusting 13 7.8
2019-Sep-13 19:28 194 6 gusting 11 7.8
2019-Sep-13 18:28 205 5 gusting 9 7.8
2019-Sep-13 17:28 214 6 gusting 11 7.2
2019-Sep-13 16:28 199 7 gusting 13 6.1
2019-Sep-13 15:28 194 6 gusting 12 6.1
2019-Sep-13 14:28 195 6 gusting 12 6.1
2019-Sep-13 13:28 180 6 gusting 10 6.1
2019-Sep-13 12:28 199 5 gusting 10 5.6
2019-Sep-13 11:28 195 6 gusting 10 6.1
2019-Sep-13 10:28 183 6 gusting 10 5.6
2019-Sep-13 09:28 195 7 gusting 17 5.0
2019-Sep-13 08:28 187 8 gusting 18 5.0
2019-Sep-13 07:28 216 6 gusting 13 5.6